Volver al catálogo

STARLINK-5947

ActivoComunicacionesVLEO
NORAD 55989·PAYLOAD·🇺🇸 United States

Lanzado Mar 24, 2023 desde Cape Canaveral Space Force Station

Loading…

Próximos Pases (próximas 24 horas)

TLE

ActualizadoSource: CelesTrak SupGP

Época: Sep 15, 2026, 02:36 UTC

1 55989C 23042D   26258.10881944 -.00023415  00000+0 -84794-3 0  2584
2 55989  43.0040  69.8292 0002015 275.5486 282.9862 15.27595449    19

Sigue STARLINK-5947 en tiempo real con AllMySat

Download on the App Store